OBJECT P, 43771

Orbit data source: Space-Track

You're viewing an uncataloged RSO

Recently launched and/or uncataloged RSOs may have evolving metadata. Metadata may include the following, but is not limited to: Owner, Manufacturer, Bus, Motor, and Mission.

OBJECT P, 43771 is a satellite in SSO that was launched on Mon, 03 Dec 2018 UTC via an FALCON 9 launch vehicle from the Air Force Western Test Range (AFWTR). Unknown objects in Earth's orbit typically refer to objects detected orbiting the Earth but have not yet been identified or cataloged. These objects could be anything from previously untracked satellites, spent rocket stages, debris from satellite collisions, or even natural meteoroids temporarily captured by Earth's gravity.

Loading next visibility...
Identifier
43771, 2018-099P
Orbit
SSO
Country
Flag of TBDTBD
Related business
None
Manufacturer
Unknown
Mission
Non-operational Amateur Technology
Bus & Motor
Unknown
Mass
Unknown
Launch date (UTC)
2018-12-03 (8 years ago)
Launch vehicle
FALCON 9
Launch site
Air Force Western Test Range (AFWTR)
Object type
Unknown
Shape & HBR
Box + Inf Sphere + 4 Pan, 15.0 m
Radar Cross Section
1.830 m², Medium (>0.1 m² and < 1m²)

Expand to show TLE details & history
Last TLE update: 1 day ago

TLE from 1 day ago
0 OBJECT P
1 43771U 18099P   26235.11611504  .00017558  00000-0  49322-3 0  9995
2 43771  97.4195 299.2455 0008959  54.8715 305.3367 15.36555311423816
Epoch: 2026-08-23T02:47Z
TLE epoch observation values (Epoch: 2026-08-23T02:47:12.339Z)
Latitude
-0.00007°
Longitude
-73.9727°
Altitude
455.879 km
Speed
7.641 km/s
True Right ascension
19h 56m 58s
True Declination
0° 00' 00"
Sunlit
Object was in full shadow at epoch
Visualization orbit readout
Latitude
Unknown
Longitude
Unknown
Altitude
Unknown
Speed
Unknown
Apparent Right ascension
Unknown
Apparent Declination
Unknown
Sunlit
N/A
Visualization observer readout
Local Sidereal Time
20:00:30
Azimuth
Unknown
Elevation
Unknown
Doppler factor
Unknown
Orbital elements
Apogee altitude
459.369 km
Perigee altitude
447.129 km
Semi-major axis
6,831.386 km
Eccentricity
0.0009
Inclination
97.4195°
RAAN
299.2455°
Arg. of periapsis
54.8715°
True anomaly
305.2529°
Mean anomaly
305.3367°
Eccentric anomaly
305.2948°
Mean motion
3.84397 °/min
Orbital period
93.65 mins
BSTAR
0.00049322
Loading maneuver chart data...
Computing Atmospheric mass density...
Loading historical data...
Loading historical data...
Loading historical data...
Loading historical data...
Loading historical data...
Loading historical data...
Loading historical data...

Documentation

Showing up to 5 results
|